Tracking 34408 objects as of 14-Jun-2026
HD Live streaming from Space Station
objects crossing your sky now

ESSA 3 (TOS-A)

Track ESSA 3 (TOS-A) now!
10-day predictions
ESSA 3 (TOS-A) is classified as:


NORAD ID: 2435
Int'l Code: 1966-087A
Perigee: 1,392.7 km
Apogee: 1,493.3 km
Inclination: 101.1 °
Period: 114.6 minutes
Semi major axis: 7813 km
RCS: 0.8135 m2 (medium)
Launch date: October 2, 1966
Source: United States (US)
Launch site: AIR FORCE WESTERN TEST RANGE (AFWTR)
Your satellite tracking list
Your tracking list is empty




NASA's NSSDC Master Catalog

Two Line Element Set (TLE):
1  2435U 66087A   26165.22298934 -.00000029  00000-0  75505-4 0  9998
2  2435 101.0776  68.2032 0064398  44.3388  75.6841 12.56880464738631
Source of the keplerian elements: AFSPC